Change the Weather History Date:

Wednesday, January 15, 2014

  Actual Average Record
Temperature  
Mean Temperature 37 °F 28 °F  
Max Temperature 48 °F 39 °F 53 °F (2010)
Min Temperature 26 °F 17 °F -3 °F (2005)
Degree Days  
Heating Degree Days 28 37  
Month to date heating degree days 566 561  
Since 1 July heating degree days 3364 3608  
Cooling Degree Days 0 0  
Month to date cooling degree days 0 0  
Year to date cooling degree days 0 0  
Moisture  
Dew Point 18 °F    
Average Humidity 46    
Maximum Humidity 64    
Minimum Humidity 28    
Precipitation  
Precipitation 0.00 in 0.02 in 0.09 in (2013)
Month to date precipitation 0.15 0.17  
Year to date precipitation 0.15 0.17  
Sea Level Pressure  
Sea Level Pressure 30.06 in    
Wind  
Wind Speed 13 mph (West)    
Max Wind Speed 47 mph    
Max Gust Speed 72 mph    
Visibility 10 miles    
Events      
T = Trace of Precipitation, MM = Missing Value Source: NWS Daily Summary

Daily Weather History Graph

Daily Weather History Graph

Search for Another Location

Airport or City:

Trip Planner

Search our weather history database for the weather conditions in past years. The results will help you decide how hot, cold, wet, or windy it might be!

Date:

Astronomy

Jan. 15, 2014 Rise Set
Actual Time 7:39 AM MST 4:53 PM MST
Civil Twilight 7:07 AM MST 5:25 PM MST
Nautical Twilight 6:31 AM MST 6:01 PM MST
Astronomical Twilight 5:56 AM MST 6:36 PM MST
Moon 4:56 PM MST (1/15) 6:55 AM MST (1/15)
Length of Visible Light 10h 18m
Length of Day
9h 14m
Full, 100% of the Moon is Illuminated
Jan 15
Full
Jan 15
Full
Jan 23
Last Quarter
Jan 30
New
Feb 6
First Quarter

Hourly Weather History & Observations

Time (MST) Temp. Windchill Dew Point Humidity Pressure Visibility Wind Dir Wind Speed Gust Speed Precip Events Conditions
12:53 AM 28.9 °F 23.9 °F 16.0 °F 58% 30.22 in 10.0 mi West 4.6 mph - N/A   Clear
1:53 AM 30.0 °F 22.4 °F 18.0 °F 61% 30.19 in 10.0 mi SW 8.1 mph - N/A   Clear
2:53 AM 37.0 °F 33.3 °F 18.0 °F 46% 30.12 in 10.0 mi SSE 4.6 mph - N/A   Clear
3:53 AM 37.0 °F 30.4 °F 18.0 °F 46% 30.09 in 10.0 mi South 9.2 mph - N/A   Clear
4:53 AM 36.0 °F 31.1 °F 19.0 °F 50% 30.06 in 10.0 mi Variable 5.8 mph - N/A   Clear
5:53 AM 28.9 °F 25.2 °F 18.0 °F 64% 30.09 in 10.0 mi South 3.5 mph - N/A   Clear
6:53 AM 30.0 °F 22.4 °F 18.0 °F 61% 30.08 in 10.0 mi WSW 8.1 mph - N/A   Clear
7:53 AM 33.1 °F 26.9 °F 19.9 °F 59% 30.06 in 10.0 mi SW 6.9 mph - N/A   Scattered Clouds
8:53 AM 36.0 °F 31.1 °F 21.0 °F 55% 30.05 in 10.0 mi SSE 5.8 mph - N/A   Clear
9:53 AM 44.1 °F 42.5 °F 19.9 °F 38% 30.05 in 10.0 mi Variable 3.5 mph - N/A   Clear
10:53 AM 41.0 °F 36.4 °F 21.9 °F 47% 30.04 in 10.0 mi WSW 6.9 mph - N/A   Clear
11:53 AM 43.0 °F 38.2 °F 19.9 °F 40% 30.04 in 10.0 mi NE 8.1 mph - N/A   Clear
12:53 PM 45.0 °F - 21.0 °F 39% 29.99 in 10.0 mi Calm Calm - N/A   Clear
1:53 PM 45.0 °F 43.5 °F 23.0 °F 42% 29.97 in 10.0 mi SE 3.5 mph - N/A   Clear
2:53 PM 45.0 °F 40.6 °F 23.0 °F 42% 29.97 in 10.0 mi West 8.1 mph - N/A   Clear
3:53 PM 46.9 °F - 19.0 °F 33% 29.97 in 10.0 mi WNW 15.0 mph - N/A   Clear
4:53 PM 46.0 °F 38.0 °F 15.1 °F 29% 29.98 in 10.0 mi WNW 21.9 mph 28.8 mph N/A   Clear
5:53 PM 44.1 °F 35.9 °F 15.1 °F 31% 30.03 in 10.0 mi NW 19.6 mph 26.5 mph N/A   Clear
6:53 PM 44.1 °F 35.0 °F 14.0 °F 30% 30.04 in 10.0 mi NW 24.2 mph 33.4 mph N/A   Clear
7:53 PM 43.0 °F 34.8 °F 14.0 °F 31% 30.04 in 10.0 mi NW 18.4 mph 33.4 mph N/A   Clear
8:53 PM 43.0 °F 33.1 °F 15.1 °F 32% 30.04 in 10.0 mi NNW 26.5 mph 42.6 mph N/A   Clear
9:53 PM 44.1 °F 32.7 °F 16.0 °F 32% 30.03 in 10.0 mi NNW 39.1 mph 56.4 mph N/A   Overcast
10:53 PM 34.0 °F 21.0 °F 23.0 °F 64% 30.18 in 10.0 mi NNW 26.5 mph 41.4 mph N/A   Overcast
11:53 PM 32.0 °F 16.7 °F 16.0 °F 52% 30.18 in 10.0 mi North 34.5 mph 48.3 mph N/A   Overcast